SCP
0 0 0 0 0 0 0 0 0 0 0 0 0 0 0 0 0 0 0 0 0 0 0 0 0 0 0 0 0 0 0 0 0 0 0 0 0 0 0 0 0 0 0
0 0 0 0 0 0 0 0 0 0 0 0 0 0 0 0 0 0 0 0 0 0 0 0 0 0 0 0 0 0 0 0 0 0 0 0 0 0 0 0 0 0 0
0 0 0 0 0 0 0 0 0 0 0 0 0 0 0 0 0 0 0 0 0 0 0 0 0 0 0 0 0 0 0 0 0 0 0 0 0 0 0 0 0 0 0
0 0 0 0 0 0 0 0 0 0 0 0 0 0 0 0 0 0 0 0 0 0 0 0 0 0 0 0 0 0 0 0 0 0 0 0 0 0 0 0 0 0 0
0 0 0 0 0 0 0 0 0 0 0 0 0 0 0 0 0 0 0 0 0 0 0 0 0 0 0 0 0 0 0 0 0 0 0 0 0 0 0 0 0 0 0
0 0 0 0 0 0 0 0 0 0 0 0 0 0 0 0 0 0 0 0 0 0 0 0 0 0 0 0 0 0 0 0 0 0 0 0 0 0 0 0 0 0 0
0 0 0 0 0 0 0 0 0 0 0 0 0 0 0 0 0 0 0 0 0 0 0 0 0 0 0 0 0 0 0 0 0 0 0 0 0 0 0 0 0 0 0
0 0 0 0 0 0 0 0 0 0 0 0 0 0 0 0 0 0 0 0 0 0 0 0 0 0 0 0 0 0 0 0 0 0 0 0 0 0 0 0 0 0 0
0 0 0 0 0 0 0 0 0 0 0 0 0 0 0 0 0 0 0 0 0 0 0 0 0 0 0 0 0 0 0 0 0 0 0 0 0 0 0 0 0 0 0
0 0 0 0 0 0 0 0 0 0 0 0 0 0 0 0 0 0 0 0 0 0 0 0 0 0 0 0 0 0 0 0 0 0 0 0 0 0 0 0 0 0 0
0 0 0 0 0 0 0 0 0 0 0 0 0 0 0 0 0 0 0 0 0 0 0 0 0 0 0 0 0 0 0 0 0 0 0 0 0 0 0 0 0 0 0
0 0 0 0 0 0 0 0 0 0 0 0 0 0 0 0 0 0 0 0 0 0 0 0 0 0 0 0 0 0 0 0 0 0 0 0 0 0 0 0 0 0 0
0 0 0 0 0 0 0 0 0 0 0 0 0 0 0 0 0 0 0 0 0 0 0 0 0 0 0 0 0 0 0 0 0 0 0 0 0 0 0 0 0 0 0
0 0 0 0 0 0 0 0 0 0 0 0 0 0 0 0 0 0 0 0 0 0 0 0 0 0 0 0 0 0 0 0 0 0 0 0 0 0 0 0 0 0 0
0 0 0 0 0 0 0 0 0 0 0 0 0 0 0 0 0 0 0 0 0 0 0 0 0 0 0 0 0 0 0 0 0 0 0 0 0 0 0 0 0 0 0
0 0 0 0 0 0 0 0 0 0 0 0 0 0 0 0 0 0 0 0 0 0 0 0 0 0 0 0 0 0 0 0 0 0 0 0 0 0 0 0 0 0 0
0 0 0 0 0 0 0 0 0 0 0 0 0 0 0 0 0 0 0 0 0 0 0 0 0 0 0 0 0 0 0 0 0 0 0 0 0 0 0 0 0 0 0
0 0 0 0 0 0 0 0 0 0 0 0 0 0 0 0 0 0 0 0 0 0 0 0 0 0 0 0 0 0 0 0 0 0 0 0 0 0 0 0 0 0 0
0 0 0 0 0 0 0 0 0 0 0 0 0 0 0 0 0 0 0 0 0 0 0 0 0 0 0 0 0 0 0 0 0 0 0 0 0 0 0 0 0 0 0
0 0 0 0 0 0 0 0 0 0 0 0 0 0 0 0 0 0 0 0 0 0 0 0 0 0 0 0 0 0 0 0 0 0 0 0 0 0 0 0 0 0 0
0 0 0 0 0 0 0 0 0 0 0 0 0 0 0 0 0 0 0 0 0 0 0 0 0 0 0 0 0 0 0 0 0 0 0 0 0 0 0 0 0 0 0
0 0 0 0 0 0 0 0 0 0 0 0 0 0 0 0 0 0 0 0 0 0 0 0 0 0 0 0 0 0 0 0 0 0 0 0 0 0 0 0 0 0 0
0 0 0 0 0 0 0 0 0 0 0 0 0 0 0 0 0 0 0 0 0 0 0 0 0 0 0 0 0 0 0 0 0 0 0 0 0 0 0 0 0 0 0
0 0 0 0 0 0 0 0 0 0 0 0 0 0 0 0 0 0 0 0 0 0 0 0 0 0 0 0 0 0 0 0 0 0 0 0 0 0 0 0 0 0 0
0 0 0 0 0 0 0 0 0 0 0 0 0 0 0 0 0 0 0 0 0 0 0 0 0 0 0 0 0 0 0 0 0 0 0 0 0 0 0 0 0 0 0
0 0 0 0 0 0 0 0 0 0 0 0 0 0 0 0 0 0 0 0 0 0 0 0 0 0 0 0 0 0 0 0 0 0 0 0 0 0 0 0 0 0 0
Wind_Speed
7 8 20 20 19 17 15 14 13 12 11 10 9 9 9 9 10 10 10 11 11 12 12 12 13 13 13 14 14 15 16 17 18 18 18 17 17 17 17 17 15 11 18
10 12 22 21 19 18 16 15 14 12 11 10 9 9 9 9 9 9 10 10 10 11 12 12 12 12 13 13 14 14 15 16 16 17 17 15 14 16 16 16 16 11 17
10 14 18 22 20 19 17 16 14 13 12 11 10 10 9 9 9 9 9 10 9 10 10 10 11 11 12 12 13 13 14 15 15 16 15 9 8 15 15 15 16 16 16
12 13 12 21 21 19 18 16 15 14 13 12 11 10 9 9 8 8 8 9 8 9 9 9 10 10 11 11 12 12 13 13 14 15 9 8 7 12 14 15 15 15 15
11 12 12 23 21 20 18 17 16 15 14 12 11 10 9 9 9 8 8 8 8 8 8 8 9 9 9 10 10 11 11 12 13 12 7 7 7 10 13 13 13 13 14
11 11 12 23 21 20 19 17 16 15 14 13 12 11 10 10 9 8 8 8 7 7 7 7 7 8 8 8 9 9 10 10 10 7 7 7 6 8 11 11 11 12 12
11 10 10 22 21 20 19 18 17 16 15 14 13 12 11 10 9 8 8 7 7 6 6 6 6 6 6 7 8 8 8 8 6 6 6 6 6 8 10 10 10 10 10
10 9 8 21 21 20 19 18 17 16 15 14 14 13 12 11 10 9 8 7 6 6 5 5 5 5 5 5 6 6 6 6 5 5 5 6 6 7 8 8 8 8 8
7 8 7 9 15 20 20 19 18 17 16 15 14 13 12 11 11 10 9 8 7 6 5 4 4 3 3 3 4 4 4 4 4 3 5 5 5 5 6 6 6 6 6
6 8 8 6 8 9 12 18 18 17 17 16 15 14 13 12 11 11 9 9 8 7 6 4 3 2 2 1 2 2 3 4 2 3 3 5 6 3 3 3 3 4 4
8 7 8 7 6 8 8 12 15 16 16 15 13 14 11 4 3 4 7 9 9 8 7 6 5 4 2 1 2 0 3 2 1 2 3 8 6 3 2 2 2 2 2
14 11 9 8 7 7 7 7 6 6 7 7 5 6 4 4 4 4 7 10 10 9 8 8 7 4 2 2 3 4 2 0 1 2 4 10 8 6 4 3 3 3 2
12 12 12 10 7 7 6 5 3 3 4 5 6 5 5 4 3 3 2 3 2 3 0 1 1 2 2 1 0 0 1 1 2 2 5 11 10 9 7 6 6 5 5
8 12 11 10 8 7 6 5 5 4 4 4 5 6 5 3 3 3 2 2 1 1 1 1 1 1 1 2 3 3 3 3 3 3 5 12 13 12 11 10 9 9 8
9 10 10 10 10 7 6 5 5 5 5 5 5 5 6 5 5 4 3 3 3 2 2 3 3 3 3 4 4 5 5 5 5 5 4 13 15 15 14 14 13 12 11
11 10 10 11 10 8 8 6 5 5 5 5 5 6 7 6 6 5 5 4 4 4 4 4 4 4 4 4 5 6 6 6 6 6 5 8 16 17 17 17 16 15 14
8 8 10 10 10 10 9 8 5 5 5 5 5 7 8 7 7 7 6 6 5 5 5 4 4 3 4 5 6 7 6 7 7 7 7 6 7 15 19 19 19 18 18
7 7 9 10 10 10 9 7 5 5 6 5 5 6 8 8 8 7 7 7 6 5 5 5 4 4 5 5 6 6 6 6 8 8 7 7 6 7 13 21 21 21 20
6 7 8 9 10 9 8 5 5 5 6 5 5 6 8 9 9 8 8 7 6 5 6 7 6 5 6 7 7 7 6 7 8 9 10 10 10 9 8 16 23 23 23
2 5 6 7 7 7 5 4 3 4 4 4 6 7 8 8 10 9 8 7 7 6 6 6 8 7 6 6 7 7 7 8 7 9 12 11 10 12 12 12 11 15 24
4 2 3 5 5 5 4 4 4 5 4 4 6 7 9 9 10 10 9 8 8 9 11 10 7 7 7 3 2 5 6 10 13 12 11 11 12 13 11 12 10 8 9
5 2 1 3 5 5 4 4 3 3 3 4 5 7 9 10 11 10 11 9 9 9 9 9 9 5 5 6 5 3 6 5 6 11 10 10 11 8 10 12 10 11 9
7 4 2 1 3 4 4 3 2 1 1 1 4 6 8 9 10 11 12 11 10 10 10 12 12 10 9 7 8 6 5 7 4 4 6 8 8 8 8 8 11 12 12
6 4 3 2 1 2 4 4 5 4 5 6 4 4 6 8 10 11 12 12 11 10 12 12 12 11 10 9 6 9 10 5 4 6 4 4 6 8 9 9 10 12 12
6 5 5 4 3 2 3 4 5 6 6 4 3 5 6 6 9 11 11 11 12 11 12 12 11 12 11 12 9 6 9 9 8 8 11 6 5 6 8 10 9 9 10
6 6 5 5 4 2 1 2 4 7 7 6 6 6 5 4 5 9 10 10 11 11 12 13 12 12 12 13 11 9 8 7 8 11 15 11 10 7 9 9 9 9 9
Wind_Direction
196 185 189 174 171 171 169 165 161 156 150 144 137 128 119 111 106 100 94 88 83 80 79 75 73 71 70 68 66 64 61 59 55 51 49 55 67 70 70 69 62 54 61
166 174 186 175 173 173 172 169 165 160 155 151 145 138 130 121 115 109 102 94 88 83 80 78 75 73 73 72 71 70 68 64 59 52 45 36 53 68 65 64 65 62 62
155 170 184 175 175 175 175 172 168 165 162 158 153 146 139 131 123 115 107 98 93 88 82 79 77 75 75 75 74 73 71 66 59 50 37 18 24 66 67 64 63 62 62
159 168 181 175 176 177 177 175 172 170 169 165 161 154 148 142 136 126 117 109 102 94 89 84 81 79 78 78 77 76 72 65 57 46 27 10 6 60 64 63 62 61 60
161 168 181 176 177 179 179 178 176 175 173 170 168 163 159 154 148 138 129 121 113 105 97 90 85 83 82 82 81 79 74 64 50 36 19 7 358 58 65 63 61 61 59
163 169 183 177 179 181 181 181 180 179 177 176 174 171 169 165 158 150 141 133 126 118 109 99 90 85 85 86 86 83 78 65 43 24 14 2 347 55 65 64 63 62 60
163 170 185 179 182 183 184 184 183 183 183 182 180 179 177 173 167 161 155 149 143 134 123 111 99 90 84 87 92 88 81 64 47 22 7 355 342 56 62 61 60 60 60
161 167 181 184 185 186 187 187 187 188 188 188 187 186 185 182 177 173 171 166 161 152 142 129 115 101 89 85 92 95 87 68 39 14 353 345 351 56 60 58 57 57 57
161 168 183 190 187 189 190 191 191 192 192 193 192 192 191 189 187 186 183 181 179 173 163 152 137 120 102 88 93 101 99 81 52 1 345 334 347 46 58 55 51 53 52
168 179 186 194 185 185 189 195 194 195 196 197 197 196 196 196 196 196 192 194 194 192 187 183 175 162 137 106 99 116 114 74 31 345 334 316 331 15 44 49 40 44 46
187 194 192 194 188 180 180 195 196 198 199 200 199 199 196 183 176 194 190 202 207 207 207 209 209 209 200 308 328 177 91 86 344 314 311 304 310 319 338 2 360 1 16
197 196 195 194 188 179 181 187 187 188 192 189 177 185 160 139 154 158 196 208 218 220 223 225 225 230 176 57 0 24 66 157 270 285 287 292 292 289 286 283 283 288 294
197 195 197 194 186 181 179 175 173 171 171 171 166 156 139 139 152 154 160 214 248 255 307 306 346 80 107 142 172 213 221 226 242 261 278 282 281 278 274 267 264 265 267
195 200 196 191 187 188 179 175 170 170 171 169 165 156 147 149 159 160 169 175 160 124 153 149 147 163 188 207 219 231 233 228 231 239 259 269 273 273 272 267 262 259 258
205 200 196 191 192 186 182 180 178 179 177 171 165 167 163 165 173 177 184 188 190 178 187 200 207 220 233 239 237 235 237 235 235 234 248 263 268 270 269 268 264 260 257
208 199 191 194 193 186 191 190 185 179 174 171 176 177 177 176 177 181 191 198 202 198 198 203 212 221 233 239 248 242 242 240 239 237 234 255 263 266 267 266 265 263 260
210 194 191 194 190 192 196 193 185 177 175 183 185 182 185 185 185 188 195 205 208 200 200 205 219 225 241 242 248 247 245 241 241 240 238 234 248 260 263 264 265 264 261
202 188 189 195 193 197 198 193 185 179 185 191 186 187 194 195 190 192 203 214 204 193 196 205 210 220 234 238 246 247 244 242 242 241 240 237 232 241 254 258 260 261 261
193 182 182 191 190 192 191 188 187 183 196 195 191 197 201 202 199 201 213 216 194 197 205 217 211 208 227 236 243 247 242 243 244 245 241 238 234 234 232 250 253 255 257
153 173 179 189 185 174 171 174 184 204 211 204 204 209 203 206 205 209 219 215 193 201 213 215 223 214 222 234 252 257 246 241 238 239 242 241 235 232 230 232 241 251 251
56 123 177 181 176 160 160 176 194 220 216 219 219 216 210 211 208 212 224 215 203 215 222 217 216 222 230 205 245 277 262 240 240 239 235 235 236 233 227 226 225 225 243
31 31 161 185 180 179 178 166 178 188 211 217 220 223 218 217 215 217 223 225 215 221 226 219 207 210 220 184 190 238 297 297 246 236 232 231 235 231 230 229 225 224 224
24 10 12 192 185 185 168 140 117 95 340 258 231 231 227 223 222 224 225 225 222 218 227 224 216 213 226 210 197 192 220 248 294 264 235 233 231 226 230 229 228 227 225
12 14 29 45 116 162 162 170 188 206 230 235 227 232 232 222 226 227 229 228 227 224 229 229 221 218 220 226 211 220 227 208 232 290 266 244 236 230 228 230 231 229 226
19 27 32 48 60 105 168 192 204 231 244 258 255 251 246 234 229 230 230 230 232 230 231 232 226 219 218 227 217 206 228 237 229 245 270 258 243 230 227 226 226 226 225
23 27 30 41 41 42 153 208 221 241 258 272 272 267 262 250 240 235 233 233 235 235 235 234 232 226 226 227 228 216 206 208 210 220 246 255 254 234 221 223 223 223 224